Time,TemperatureF,DewpointF,PressureIn,WindDirection,WindDirectionDegrees,WindSpeedMPH,WindSpeedGustMPH,Humidity,HourlyPrecipIn,Conditions,Clouds,dailyrainin,SoftwareType,DateUTC
2013-02-05 00:01:00,47.0,-99.9,30.09,WSW,258,7.0,11.0,-999,-99.99,,,-99.99,,2013-02-05 08:01:00,
2013-02-05 00:11:00,47.0,-99.9,30.09,WSW,253,8.0,10.0,-999,-99.99,,,-99.99,,2013-02-05 08:11:00,
2013-02-05 00:22:00,47.0,-99.9,30.09,WSW,249,5.0,10.0,-999,-99.99,,,-99.99,,2013-02-05 08:22:00,
2013-02-05 00:32:00,47.0,-99.9,30.09,WSW,258,4.0,6.0,-999,-99.99,,,-99.99,,2013-02-05 08:32:00,
2013-02-05 00:42:00,47.0,-99.9,30.09,West,274,4.0,6.0,-999,-99.99,,,-99.99,,2013-02-05 08:42:00,
2013-02-05 00:52:00,47.0,-99.9,30.09,WNW,283,3.0,6.0,-999,-99.99,,,-99.99,,2013-02-05 08:52:00,
2013-02-05 01:02:00,47.0,-99.9,30.08,WSW,243,6.0,10.0,-999,-99.99,,,-99.99,,2013-02-05 09:02:00,
2013-02-05 01:12:00,47.0,-99.9,30.08,WSW,240,5.0,8.0,-999,-99.99,,,-99.99,,2013-02-05 09:12:00,
2013-02-05 01:22:00,47.0,-99.9,30.08,WSW,258,3.0,10.0,-999,-99.99,,,-99.99,,2013-02-05 09:22:00,
2013-02-05 01:32:00,47.0,-99.9,30.08,West,267,5.0,9.0,-999,-99.99,,,-99.99,,2013-02-05 09:32:00,
2013-02-05 01:42:00,47.0,-99.9,30.08,WSW,255,5.0,9.0,-999,-99.99,,,-99.99,,2013-02-05 09:42:00,
2013-02-05 01:52:00,48.0,-99.9,30.08,West,266,5.0,11.0,-999,-99.99,,,-99.99,,2013-02-05 09:52:00,
2013-02-05 02:02:00,48.0,-99.9,30.08,WSW,251,5.0,9.0,-999,-99.99,,,-99.99,,2013-02-05 10:02:00,
2013-02-05 02:11:00,48.0,-99.9,30.08,WSW,255,6.0,10.0,-999,-99.99,,,-99.99,,2013-02-05 10:11:00,
2013-02-05 02:22:00,48.0,-99.9,30.08,SW,228,4.0,12.0,-999,-99.99,,,-99.99,,2013-02-05 10:22:00,
2013-02-05 02:32:00,48.0,-99.9,30.08,WSW,254,8.0,12.0,-999,-99.99,,,-99.99,,2013-02-05 10:32:00,
2013-02-05 02:42:00,47.0,-99.9,30.08,West,266,6.0,13.0,-999,-99.99,,,-99.99,,2013-02-05 10:42:00,
2013-02-05 02:52:00,48.0,-99.9,30.08,West,270,7.0,10.0,-999,-99.99,,,-99.99,,2013-02-05 10:52:00,
2013-02-05 03:01:00,48.0,-99.9,30.08,West,261,6.0,9.0,-999,-99.99,,,-99.99,,2013-02-05 11:01:00,
2013-02-05 03:11:00,48.0,-99.9,30.08,West,259,4.0,8.0,-999,-99.99,,,-99.99,,2013-02-05 11:11:00,
2013-02-05 03:22:00,48.0,-99.9,30.07,West,267,3.0,5.0,-999,-99.99,,,-99.99,,2013-02-05 11:22:00,
2013-02-05 03:32:00,48.0,-99.9,30.07,WSW,247,4.0,7.0,-999,-99.99,,,-99.99,,2013-02-05 11:32:00,
2013-02-05 03:42:00,48.0,-99.9,30.07,WSW,250,3.0,6.0,-999,-99.99,,,-99.99,,2013-02-05 11:42:00,
2013-02-05 03:52:00,48.0,-99.9,30.07,WSW,255,3.0,4.0,-999,-99.99,,,-99.99,,2013-02-05 11:52:00,
2013-02-05 04:02:00,48.0,-99.9,30.07,West,259,3.0,5.0,-999,-99.99,,,-99.99,,2013-02-05 12:02:00,
2013-02-05 04:12:00,48.0,-99.9,30.07,West,275,4.0,7.0,-999,-99.99,,,-99.99,,2013-02-05 12:12:00,
2013-02-05 04:22:00,48.0,-99.9,30.07,WSW,258,3.0,6.0,-999,-99.99,,,-99.99,,2013-02-05 12:22:00,
2013-02-05 04:32:00,48.0,-99.9,30.06,WSW,256,4.0,7.0,-999,-99.99,,,-99.99,,2013-02-05 12:32:00,
2013-02-05 04:42:00,48.0,-99.9,30.07,West,259,4.0,6.0,-999,-99.99,,,-99.99,,2013-02-05 12:42:00,
2013-02-05 04:52:00,48.0,-99.9,30.06,WSW,255,5.0,6.0,-999,-99.99,,,-99.99,,2013-02-05 12:52:00,
2013-02-05 05:02:00,48.0,-99.9,30.06,WSW,244,4.0,9.0,-999,-99.99,,,-99.99,,2013-02-05 13:02:00,
2013-02-05 05:12:00,49.0,-99.9,30.06,WSW,253,4.0,6.0,-999,-99.99,,,-99.99,,2013-02-05 13:12:00,
2013-02-05 05:22:00,48.0,-99.9,30.06,West,260,4.0,7.0,-999,-99.99,,,-99.99,,2013-02-05 13:22:00,
2013-02-05 05:32:00,48.0,-99.9,30.06,West,260,4.0,7.0,-999,-99.99,,,-99.99,,2013-02-05 13:32:00,
2013-02-05 05:42:00,48.0,-99.9,30.06,WSW,258,5.0,8.0,-999,-99.99,,,-99.99,,2013-02-05 13:42:00,
2013-02-05 05:52:00,47.0,-99.9,30.06,West,270,7.0,10.0,-999,-99.99,,,-99.99,,2013-02-05 13:52:00,
2013-02-05 06:01:00,47.0,-99.9,30.06,West,270,6.0,8.0,-999,-99.99,,,-99.99,,2013-02-05 14:01:00,
2013-02-05 06:12:00,48.0,-99.9,30.06,West,269,4.0,9.0,-999,-99.99,,,-99.99,,2013-02-05 14:12:00,
2013-02-05 06:22:00,48.0,-99.9,30.06,West,270,5.0,11.0,-999,-99.99,,,-99.99,,2013-02-05 14:22:00,
2013-02-05 06:32:00,48.0,-99.9,30.06,WNW,283,6.0,10.0,-999,-99.99,,,-99.99,,2013-02-05 14:32:00,
2013-02-05 06:42:00,48.0,-99.9,30.06,WNW,289,5.0,7.0,-999,-99.99,,,-99.99,,2013-02-05 14:42:00,
2013-02-05 06:52:00,48.0,-99.9,30.06,WNW,282,2.0,5.0,-999,-99.99,,,-99.99,,2013-02-05 14:52:00,
2013-02-05 07:02:00,48.0,-99.9,30.06,West,277,5.0,8.0,-999,-99.99,,,-99.99,,2013-02-05 15:02:00,
2013-02-05 07:11:00,48.0,-99.9,30.07,West,277,4.0,7.0,-999,-99.99,,,-99.99,,2013-02-05 15:11:00,
2013-02-05 07:22:00,48.0,-99.9,30.07,WSW,250,6.0,9.0,-999,-99.99,,,-99.99,,2013-02-05 15:22:00,
2013-02-05 07:32:00,48.0,-99.9,30.07,WSW,257,7.0,14.0,-999,-99.99,,,-99.99,,2013-02-05 15:32:00,
2013-02-05 07:42:00,48.0,-99.9,30.07,West,274,6.0,12.0,-999,-99.99,,,-99.99,,2013-02-05 15:42:00,
2013-02-05 07:52:00,49.0,-99.9,30.07,WSW,248,5.0,10.0,-999,-99.99,,,-99.99,,2013-02-05 15:52:00,
2013-02-05 08:12:00,49.0,-99.9,30.07,WSW,244,7.0,10.0,-999,-99.99,,,-99.99,,2013-02-05 16:12:00,
2013-02-05 08:22:00,49.0,-99.9,30.07,West,271,7.0,11.0,-999,-99.99,,,-99.99,,2013-02-05 16:22:00,
2013-02-05 08:33:00,49.0,-99.9,30.08,West,279,5.0,9.0,-999,-99.99,,,-99.99,,2013-02-05 16:33:00,
2013-02-05 08:42:00,49.0,-99.9,30.08,WNW,284,5.0,9.0,-999,-99.99,,,-99.99,,2013-02-05 16:42:00,
2013-02-05 08:52:00,49.0,-99.9,30.08,West,272,4.0,9.0,-999,-99.99,,,-99.99,,2013-02-05 16:52:00,
2013-02-05 09:01:00,49.0,-99.9,30.08,West,264,5.0,10.0,-999,-99.99,,,-99.99,,2013-02-05 17:01:00,
2013-02-05 09:12:00,49.0,-99.9,30.08,West,264,5.0,10.0,-999,-99.99,,,-99.99,,2013-02-05 17:12:00,
2013-02-05 09:22:00,50.0,-99.9,30.09,WSW,253,6.0,15.0,-999,-99.99,,,-99.99,,2013-02-05 17:22:00,
2013-02-05 09:33:00,50.0,-99.9,30.09,West,260,9.0,14.0,-999,-99.99,,,-99.99,,2013-02-05 17:33:00,
2013-02-05 09:42:00,50.0,-99.9,30.09,WSW,252,7.0,14.0,-999,-99.99,,,-99.99,,2013-02-05 17:42:00,
2013-02-05 09:52:00,50.0,-99.9,30.09,WSW,258,8.0,14.0,-999,-99.99,,,-99.99,,2013-02-05 17:52:00,
2013-02-05 10:02:00,50.0,-99.9,30.09,WSW,258,8.0,14.0,-999,-99.99,,,-99.99,,2013-02-05 18:02:00,
2013-02-05 10:12:00,51.0,-99.9,30.09,WSW,258,7.0,12.0,-999,-99.99,,,-99.99,,2013-02-05 18:12:00,
2013-02-05 10:22:00,51.0,-99.9,30.09,West,259,7.0,11.0,-999,-99.99,,,-99.99,,2013-02-05 18:22:00,
2013-02-05 10:32:00,50.0,-99.9,30.10,WSW,253,8.0,12.0,-999,-99.99,,,-99.99,,2013-02-05 18:32:00,
2013-02-05 10:42:00,51.0,-99.9,30.10,WSW,253,7.0,12.0,-999,-99.99,,,-99.99,,2013-02-05 18:42:00,
2013-02-05 10:52:00,51.0,-99.9,30.10,WSW,249,7.0,11.0,-999,-99.99,,,-99.99,,2013-02-05 18:52:00,
2013-02-05 11:02:00,51.0,-99.9,30.10,WSW,249,7.0,11.0,-999,-99.99,,,-99.99,,2013-02-05 19:02:00,
2013-02-05 11:11:00,52.0,-99.9,30.10,WSW,255,5.0,11.0,-999,-99.99,,,-99.99,,2013-02-05 19:11:00,
2013-02-05 11:22:00,51.0,-99.9,30.10,WSW,256,8.0,11.0,-999,-99.99,,,-99.99,,2013-02-05 19:22:00,
2013-02-05 11:32:00,52.0,-99.9,30.10,WSW,246,9.0,13.0,-999,-99.99,,,-99.99,,2013-02-05 19:32:00,
2013-02-05 11:42:00,52.0,-99.9,30.10,WSW,242,8.0,11.0,-999,-99.99,,,-99.99,,2013-02-05 19:42:00,
2013-02-05 11:52:00,52.0,-99.9,30.09,West,259,7.0,12.0,-999,-99.99,,,-99.99,,2013-02-05 19:52:00,
2013-02-05 12:02:00,51.0,-99.9,30.09,West,259,10.0,15.0,-999,-99.99,,,-99.99,,2013-02-05 20:02:00,
2013-02-05 12:11:00,52.0,-99.9,30.09,WSW,241,9.0,13.0,-999,-99.99,,,-99.99,,2013-02-05 20:11:00,
2013-02-05 12:22:00,52.0,-99.9,30.09,WSW,246,10.0,14.0,-999,-99.99,,,-99.99,,2013-02-05 20:22:00,
2013-02-05 12:32:00,52.0,-99.9,30.09,WSW,247,10.0,18.0,-999,-99.99,,,-99.99,,2013-02-05 20:32:00,
2013-02-05 12:42:00,52.0,-99.9,30.09,WSW,246,10.0,16.0,-999,-99.99,,,-99.99,,2013-02-05 20:42:00,
2013-02-05 12:52:00,52.0,-99.9,30.08,WSW,250,9.0,17.0,-999,-99.99,,,-99.99,,2013-02-05 20:52:00,
2013-02-05 13:02:00,52.0,-99.9,30.08,WSW,240,10.0,15.0,-999,-99.99,,,-99.99,,2013-02-05 21:02:00,
2013-02-05 13:11:00,52.0,-99.9,30.07,WSW,240,9.0,15.0,-999,-99.99,,,-99.99,,2013-02-05 21:11:00,
2013-02-05 13:22:00,53.0,-99.9,30.07,WSW,250,10.0,16.0,-999,-99.99,,,-99.99,,2013-02-05 21:22:00,
2013-02-05 13:32:00,53.0,-99.9,30.06,WSW,256,9.0,15.0,-999,-99.99,,,-99.99,,2013-02-05 21:32:00,
2013-02-05 13:42:00,53.0,-99.9,30.06,WSW,248,9.0,19.0,-999,-99.99,,,-99.99,,2013-02-05 21:42:00,
2013-02-05 13:52:00,53.0,-99.9,30.06,WSW,248,9.0,19.0,-999,-99.99,,,-99.99,,2013-02-05 21:52:00,
2013-02-05 14:02:00,53.0,-99.9,30.06,WSW,246,13.0,19.0,-999,-99.99,,,-99.99,,2013-02-05 22:02:00,
2013-02-05 14:12:00,53.0,-99.9,30.06,WSW,252,15.0,21.0,-999,-99.99,,,-99.99,,2013-02-05 22:12:00,
2013-02-05 14:22:00,54.0,-99.9,30.06,WSW,250,9.0,19.0,-999,-99.99,,,-99.99,,2013-02-05 22:22:00,
2013-02-05 14:32:00,53.0,-99.9,30.06,WSW,255,15.0,23.0,-999,-99.99,,,-99.99,,2013-02-05 22:32:00,
2013-02-05 14:42:00,53.0,-99.9,30.06,WSW,251,13.0,23.0,-999,-99.99,,,-99.99,,2013-02-05 22:42:00,
2013-02-05 14:52:00,53.0,-99.9,30.06,WSW,256,14.0,23.0,-999,-99.99,,,-99.99,,2013-02-05 22:52:00,
2013-02-05 15:02:00,53.0,-99.9,30.06,WSW,257,13.0,24.0,-999,-99.99,,,-99.99,,2013-02-05 23:02:00,
2013-02-05 15:11:00,53.0,-99.9,30.06,WSW,258,10.0,22.0,-999,-99.99,,,-99.99,,2013-02-05 23:11:00,
2013-02-05 15:22:00,53.0,-99.9,30.06,WSW,251,13.0,20.0,-999,-99.99,,,-99.99,,2013-02-05 23:22:00,
2013-02-05 15:33:00,53.0,-99.9,30.06,WSW,248,13.0,22.0,-999,-99.99,,,-99.99,,2013-02-05 23:33:00,
2013-02-05 15:42:00,53.0,-99.9,30.06,WSW,249,13.0,21.0,-999,-99.99,,,-99.99,,2013-02-05 23:42:00,
2013-02-05 15:53:00,53.0,-99.9,30.06,WSW,252,11.0,17.0,-999,-99.99,,,-99.99,,2013-02-05 23:53:00,
2013-02-05 16:02:00,53.0,-99.9,30.06,WSW,255,14.0,19.0,-999,-99.99,,,-99.99,,2013-02-06 00:02:00,
2013-02-05 16:12:00,53.0,-99.9,30.06,WSW,255,14.0,19.0,-999,-99.99,,,-99.99,,2013-02-06 00:12:00,
2013-02-05 16:22:00,54.0,-99.9,30.07,WSW,253,9.0,20.0,-999,-99.99,,,-99.99,,2013-02-06 00:22:00,
2013-02-05 16:32:00,53.0,-99.9,30.06,WSW,242,11.0,18.0,-999,-99.99,,,-99.99,,2013-02-06 00:32:00,
2013-02-05 16:42:00,53.0,-99.9,30.06,WSW,247,13.0,21.0,-999,-99.99,,,-99.99,,2013-02-06 00:42:00,
2013-02-05 16:52:00,53.0,-99.9,30.06,WSW,244,13.0,18.0,-999,-99.99,,,-99.99,,2013-02-06 00:52:00,
2013-02-05 17:02:00,53.0,-99.9,30.06,WSW,244,13.0,18.0,-999,-99.99,,,-99.99,,2013-02-06 01:02:00,
2013-02-05 17:12:00,53.0,-99.9,30.07,WSW,248,13.0,19.0,-999,-99.99,,,-99.99,,2013-02-06 01:12:00,
2013-02-05 17:22:00,53.0,-99.9,30.06,WSW,242,14.0,21.0,-999,-99.99,,,-99.99,,2013-02-06 01:22:00,
2013-02-05 17:33:00,53.0,-99.9,30.07,WSW,242,15.0,21.0,-999,-99.99,,,-99.99,,2013-02-06 01:33:00,
2013-02-05 17:42:00,53.0,-99.9,30.06,WSW,240,11.0,20.0,-999,-99.99,,,-99.99,,2013-02-06 01:42:00,
2013-02-05 17:53:00,52.0,-99.9,30.06,WSW,241,11.0,19.0,-999,-99.99,,,-99.99,,2013-02-06 01:53:00,
2013-02-05 18:02:00,52.0,-99.9,30.06,WSW,239,11.0,17.0,-999,-99.99,,,-99.99,,2013-02-06 02:02:00,
2013-02-05 18:12:00,52.0,-99.9,30.06,WSW,247,11.0,17.0,-999,-99.99,,,-99.99,,2013-02-06 02:12:00,
2013-02-05 18:22:00,53.0,-99.9,30.06,WSW,243,10.0,17.0,-999,-99.99,,,-99.99,,2013-02-06 02:22:00,
2013-02-05 18:32:00,52.0,-99.9,30.06,WSW,244,8.0,16.0,-999,-99.99,,,-99.99,,2013-02-06 02:32:00,
2013-02-05 18:42:00,52.0,-99.9,30.07,WSW,243,10.0,18.0,-999,-99.99,,,-99.99,,2013-02-06 02:42:00,
2013-02-05 18:53:00,52.0,-99.9,30.07,WSW,249,9.0,17.0,-999,-99.99,,,-99.99,,2013-02-06 02:53:00,
2013-02-05 19:03:00,52.0,-99.9,30.07,WSW,245,6.0,11.0,-999,-99.99,,,-99.99,,2013-02-06 03:03:00,
2013-02-05 19:12:00,52.0,-99.9,30.07,WSW,245,10.0,14.0,-999,-99.99,,,-99.99,,2013-02-06 03:12:00,
2013-02-05 19:22:00,51.0,-99.9,30.07,WSW,240,7.0,14.0,-999,-99.99,,,-99.99,,2013-02-06 03:22:00,
2013-02-05 19:33:00,51.0,-99.9,30.08,WSW,237,10.0,14.0,-999,-99.99,,,-99.99,,2013-02-06 03:33:00,
2013-02-05 19:43:00,51.0,-99.9,30.08,WSW,241,9.0,16.0,-999,-99.99,,,-99.99,,2013-02-06 03:43:00,
2013-02-05 19:53:00,51.0,-99.9,30.09,WSW,245,9.0,13.0,-999,-99.99,,,-99.99,,2013-02-06 03:53:00,
2013-02-05 20:02:00,51.0,-99.9,30.09,WSW,242,7.0,11.0,-999,-99.99,,,-99.99,,2013-02-06 04:02:00,
2013-02-05 20:11:00,51.0,-99.9,30.09,WSW,244,7.0,13.0,-999,-99.99,,,-99.99,,2013-02-06 04:11:00,
2013-02-05 20:22:00,51.0,-99.9,30.09,WSW,250,10.0,14.0,-999,-99.99,,,-99.99,,2013-02-06 04:22:00,
2013-02-05 20:32:00,51.0,-99.9,30.09,WSW,244,9.0,14.0,-999,-99.99,,,-99.99,,2013-02-06 04:32:00,
2013-02-05 20:42:00,50.0,-99.9,30.10,WSW,247,9.0,13.0,-999,-99.99,,,-99.99,,2013-02-06 04:42:00,
2013-02-05 20:52:00,50.0,-99.9,30.10,WSW,247,8.0,14.0,-999,-99.99,,,-99.99,,2013-02-06 04:52:00,
2013-02-05 21:02:00,50.0,-99.9,30.10,WSW,245,9.0,15.0,-999,-99.99,,,-99.99,,2013-02-06 05:02:00,
2013-02-05 21:12:00,50.0,-99.9,30.10,WSW,245,9.0,15.0,-999,-99.99,,,-99.99,,2013-02-06 05:12:00,
2013-02-05 21:22:00,50.0,-99.9,30.10,WSW,246,9.0,14.0,-999,-99.99,,,-99.99,,2013-02-06 05:22:00,
2013-02-05 21:32:00,50.0,-99.9,30.10,WSW,242,7.0,11.0,-999,-99.99,,,-99.99,,2013-02-06 05:32:00,
2013-02-05 21:42:00,51.0,-99.9,30.10,WSW,244,8.0,11.0,-999,-99.99,,,-99.99,,2013-02-06 05:42:00,
2013-02-05 21:53:00,51.0,-99.9,30.11,WSW,249,4.0,7.0,-999,-99.99,,,-99.99,,2013-02-06 05:53:00,
2013-02-05 22:01:00,51.0,-99.9,30.11,West,277,2.0,4.0,-999,-99.99,,,-99.99,,2013-02-06 06:01:00,
2013-02-05 22:11:00,51.0,-99.9,30.11,WSW,245,5.0,7.0,-999,-99.99,,,-99.99,,2013-02-06 06:11:00,
2013-02-05 22:22:00,51.0,-99.9,30.11,WSW,251,5.0,8.0,-999,-99.99,,,-99.99,,2013-02-06 06:22:00,
2013-02-05 22:32:00,51.0,-99.9,30.11,WSW,251,5.0,8.0,-999,-99.99,,,-99.99,,2013-02-06 06:32:00,
2013-02-05 22:42:00,50.0,-99.9,30.12,WSW,238,5.0,9.0,-999,-99.99,,,-99.99,,2013-02-06 06:42:00,
2013-02-05 22:52:00,50.0,-99.9,30.12,SW,234,6.0,9.0,-999,-99.99,,,-99.99,,2013-02-06 06:52:00,
2013-02-05 23:02:00,50.0,-99.9,30.12,WSW,238,3.0,7.0,-999,-99.99,,,-99.99,,2013-02-06 07:02:00,
2013-02-05 23:11:00,50.0,-99.9,30.13,SSW,212,3.0,6.0,-999,-99.99,,,-99.99,,2013-02-06 07:11:00,
2013-02-05 23:22:00,50.0,-99.9,30.12,WNW,303,2.0,4.0,-999,-99.99,,,-99.99,,2013-02-06 07:22:00,
2013-02-05 23:32:00,51.0,-99.9,30.12,ENE,57,4.0,5.0,-999,-99.99,,,-99.99,,2013-02-06 07:32:00,
2013-02-05 23:42:00,51.0,-99.9,30.13,NE,53,5.0,7.0,-999,-99.99,,,-99.99,,2013-02-06 07:42:00,
2013-02-05 23:52:00,51.0,-99.9,30.13,North,355,3.0,4.0,-999,-99.99,,,-99.99,,2013-02-06 07:52:00,